Location: San Vito
(41.8833°N, 12.9833°E)
Time: 11:19:36
(UTC+00:00)

SL-16 R/B - Pass Details

Date: 17 November 2019
Orbit: 842 x 846 km, 71.0° (Epoch: 12 December)

Event Time Altitude Azimuth Distance (km) Brightness Sun altitude
Exits shadow 03:10:31 13° 4° (N) 2,244 4.4 -31.4°
Maximum altitude 03:14:19 25° 53° (NE) 1,652 4.1 -30.7°
Drops below altitude 10° 03:18:54 10° 107° (ESE) 2,465 5.4 -29.8°
Sets 03:21:47 0° 121° (ESE) 3,396 6.2 -29.3°
